Showing default

MUOS 3, 40374

Orbit data source: Space-Track

MUOS 3, 40374 is a payload satellite owned by SPAWAR Pacific (US) in GEO that was launched on Wed, 21 Jan 2015 UTC via an ATLAS V 551 launch vehicle from the Air Force Eastern Test Range (AFETR). Payload-class satellites include a variety of spacecraft equipped with specific instruments for various scientific and technological missions. These include communications satellites like Starlink; space stations such as the ISS; scientific satellites like the Hubble; Earth observation satellites from companies like Planet Labs, Umbra, and HawkEye 360; GPS; miniature CubeSats for education and research; and military/defense satellites.

Not visible in the next 10 days
Identifier
40374, 2015-002A
Orbit
GEO
Country
Flag of USUS
Related business
Manufacturer
LMSS/LMCSS
Mission
Operational Defense Communications
Bus & Motor
A2100, BT-4
Mass
6,800 kg wet, 3,800 kg dry
Launch date (UTC)
2015-01-21 (11 years ago)
Launch vehicle
ATLAS V 551
Launch site
Air Force Eastern Test Range (AFETR)
Object type
Payload
Rocket body
Debris
Shape & HBR
Box + 2 Pan + 1 Dish, 14.3 m
Radar Cross Section
71.298 m², Large (>1 m²)

Expand to show TLE details & history
Last TLE update: 20 hours ago

TLE from 20 hours ago
0 MUOS 3
1 40374U 15002A   25338.56898169 -.00000117  00000-0  00000+0 0  9998
2 40374   4.1502  42.3962 0058476 181.1733  39.4565  1.00271803 39637
Epoch: 2025-12-04T13:39Z
TLE epoch observation values (Epoch: 2025-12-04T13:39:20.018Z)
Latitude
-2.74889°
Longitude
-15.09279°
Altitude
35,595.318 km
Speed
3.089 km/s
True Right ascension
17h 33m 27s
True Declination
-2° 44' 46"
Sunlit
Object was in daylight at epoch
Visualization orbit readout
Latitude
Unknown
Longitude
Unknown
Altitude
Unknown
Speed
Unknown
Apparent Right ascension
Unknown
Apparent Declination
Unknown
Sunlit
N/A
Visualization observer readout
Local Sidereal Time
07:19:51
Azimuth
Unknown
Elevation
Unknown
Doppler factor
Unknown
Orbital elements
Apogee altitude
36,034.221 km
Perigee altitude
35,541.083 km
Semi-major axis
42,165.789 km
Eccentricity
0.00585
Inclination
4.1502°
RAAN
42.3962°
Arg. of periapsis
181.1733°
True anomaly
39.88475°
Mean anomaly
39.4565°
Eccentric anomaly
39.67038°
Mean motion
0.25067 °/min
Orbital period
1,436.15 mins
BSTAR
0
Loading maneuver chart data...
Computing Atmospheric mass density...
Loading historical data...
Loading historical data...
Loading historical data...
Loading historical data...
Loading historical data...
Loading historical data...
Loading historical data...
Other satellites on launch #2 in the year 2015 (2015-01-21 UTC)

Documentation

Showing up to 5 results
|